Worcester, MA

1:55 PM EST on November 21, 2019 (GMT -0500)
Worcester Regional

Weather History for KORH - August, 2019

Change the Weather History Date:

Monday, August 19, 2019

  Actual Average Record
Temperature  
Mean Temperature 76 °F 69 °F  
Max Temperature 87 °F 77 °F 90 °F (1906)
Min Temperature 66 °F 60 °F 48 °F (1944)
Degree Days  
Heating Degree Days 0 1  
Month to date heating degree days 0 10  
Since 1 June heating degree days 52 107  
Since 1 July heating degree days 1 24  
Cooling Degree Days 12 4  
Month to date cooling degree days 116 100  
Year to date cooling degree days 472 381  
Since 1 June cooling degree days 463 359  
Growing Degree Days 26 (Base 50)    
Moisture  
Dew Point 70 °F    
Average Humidity 88    
Maximum Humidity 100    
Minimum Humidity 59    
Precipitation  
Precipitation 0.04 in 0.11 in 6.38 in (1955)
Month to date precipitation 2.01 2.40  
Year to date precipitation 33.53 30.05  
Snow  
Snow 0.00 in 0.00 in 0.00 in (2002)
Month to date snowfall 0.0 0.0  
Since 1 June snowfall 0.0 0.0  
Since 1 July snowfall 0.0 0.0  
Snow Depth 0.00 in    
Sea Level Pressure  
Sea Level Pressure 29.98 in    
Wind  
Wind Speed 7 mph ()    
Max Wind Speed 16 mph    
Max Gust Speed 21 mph    
Visibility 7.4 miles    
Events Fog , Rain , Thunderstorm    
T = Trace of Precipitation, MM = Missing Value Source: Averaged Metar Reports

Daily Weather History Graph

Daily Weather History Graph

Search for Another Location

Airport or City:

Astronomy

Aug. 19, 2019 Rise Set
Actual Time 5:58 AM EDT 7:42 PM EDT
Civil Twilight 5:28 AM EDT 8:12 PM EDT
Nautical Twilight 4:52 AM EDT 8:48 PM EDT
Astronomical Twilight 4:13 AM EDT 9:27 PM EDT
Moon 9:58 PM EDT (8/19) 9:40 AM EDT (8/19)
Length of Visible Light 14h 43m
Length of Day
13h 43m
Waning Gibbous, 85% of the Moon is Illuminated
Aug 19
Waning Gibbous
Aug 23
Last Quarter
Aug 30
New
Sep 5
First Quarter
Sep 14
Full

Hourly Weather History & Observations

Time (EDT) Temp. Heat Index Dew Point Humidity Pressure Visibility Wind Dir Wind Speed Gust Speed Precip Events Conditions
12:52 AM 71.6 °F - 71.6 °F 100% 29.96 in 1.5 mi WSW 3.5 mph - N/A   Partly Cloudy
12:54 AM 71.1 °F - 71.1 °F 100% 29.95 in 0.8 mi WSW 3.5 mph - N/A   Mist
1:02 AM 71.1 °F - 71.1 °F 100% 29.96 in 0.2 mi WSW 3.5 mph - N/A Fog Fog
1:14 AM 70.0 °F - 70.0 °F 100% 29.96 in 0.5 mi SW 3.5 mph - N/A Fog Fog
1:22 AM 70.0 °F - 70.0 °F 100% 29.97 in 2.0 mi SSW 3.5 mph - N/A   Mostly Cloudy
1:32 AM 71.1 °F - 71.1 °F 100% 29.97 in 0.8 mi SSW 6.9 mph - N/A   Mist
1:42 AM 71.1 °F - 71.1 °F 100% 29.97 in 0.2 mi SSW 6.9 mph - N/A Fog Fog
1:54 AM 71.1 °F - 71.1 °F 100% 29.95 in 0.2 mi SW 8.1 mph - N/A Fog Fog
2:02 AM 71.1 °F - 71.1 °F 100% 29.97 in 0.5 mi SSW 8.1 mph - N/A Fog Fog
2:10 AM 71.1 °F - 71.1 °F 100% 29.97 in 2.5 mi South 6.9 mph - N/A   Overcast
2:54 AM 71.1 °F - 71.1 °F 100% 29.96 in 7.0 mi SW 9.2 mph - N/A   Overcast
3:31 AM 70.0 °F - 69.1 °F 97% 29.99 in 10.0 mi WSW 6.9 mph - N/A   Scattered Clouds
3:54 AM 70.0 °F - 69.1 °F 97% 29.97 in 10.0 mi WSW 5.8 mph - N/A   Scattered Clouds
4:54 AM 68.0 °F - 68.0 °F 100% 29.99 in 10.0 mi SW 8.1 mph - N/A   Partly Cloudy
5:54 AM 66.9 °F - 64.9 °F 93% 30.00 in 10.0 mi SW 10.4 mph - N/A   Scattered Clouds
6:54 AM 68.0 °F - 64.9 °F 90% 30.00 in 10.0 mi WSW 11.5 mph - N/A   Clear
7:54 AM 71.1 °F - 64.9 °F 81% 30.00 in 10.0 mi SW 12.7 mph - N/A   Clear
8:54 AM 73.9 °F - 66.0 °F 76% 29.99 in 10.0 mi WSW 13.8 mph - N/A   Clear
9:54 AM 78.1 °F - 69.1 °F 74% 30.00 in 10.0 mi SW 13.8 mph 19.6 mph N/A   Clear
10:54 AM 81.0 °F 84.1 °F 69.1 °F 67% 29.99 in 10.0 mi West 11.5 mph - N/A   Clear
11:54 AM 82.0 °F 84.9 °F 68.0 °F 62% 29.99 in 10.0 mi WSW 12.7 mph - N/A   Clear
12:54 PM 84.0 °F 87.8 °F 69.1 °F 61% 29.98 in 10.0 mi SW 9.2 mph - N/A   Clear
1:54 PM 84.9 °F 88.8 °F 69.1 °F 59% 29.96 in 10.0 mi SW 8.1 mph - N/A   Clear
2:54 PM 84.0 °F 87.8 °F 69.1 °F 61% 29.95 in 10.0 mi SSW 9.2 mph - N/A   Partly Cloudy
3:12 PM 82.9 °F 87.0 °F 70.0 °F 65% 29.96 in 10.0 mi SW 6.9 mph - N/A Thunderstorm Scattered Clouds
3:20 PM 81.0 °F 84.9 °F 71.1 °F 72% 29.97 in 10.0 mi WSW 8.1 mph - 0.00 in Rain , Thunderstorm Light Thunderstorms and Rain
3:40 PM 75.0 °F - 73.0 °F 94% 29.98 in 7.0 mi West 6.9 mph - 0.04 in Rain , Thunderstorm Light Thunderstorms and Rain
3:54 PM 75.0 °F - 73.0 °F 94% 29.96 in 7.0 mi West 9.2 mph - 0.04 in Rain , Thunderstorm Light Thunderstorms and Rain
4:12 PM 73.9 °F - 72.0 °F 93% 29.98 in 10.0 mi WSW 11.5 mph - 0.00 in Rain , Thunderstorm Light Rain
4:38 PM 73.0 °F - 71.1 °F 93% 29.96 in 10.0 mi SW 8.1 mph - 0.00 in   Clear
4:54 PM 72.0 °F - 70.0 °F 93% 29.95 in 10.0 mi SSW 12.7 mph - 0.00 in   Clear
5:54 PM 73.9 °F - 70.0 °F 87% 29.96 in 10.0 mi SW 10.4 mph - N/A   Clear
6:54 PM 73.9 °F - 69.1 °F 85% 29.98 in 10.0 mi SSW 13.8 mph - N/A   Clear
7:54 PM 71.1 °F - 69.1 °F 93% 29.98 in 10.0 mi SW 5.8 mph - N/A   Clear
8:54 PM 71.1 °F - 68.0 °F 90% 29.99 in 10.0 mi West 9.2 mph - N/A   Clear
9:54 PM 71.1 °F - 68.0 °F 90% 30.00 in 10.0 mi WSW 9.2 mph - N/A   Clear
10:54 PM 71.1 °F - 68.0 °F 90% 29.99 in 10.0 mi West 11.5 mph - N/A   Clear
11:54 PM 71.1 °F - 68.0 °F 90% 30.00 in 10.0 mi West 9.2 mph - N/A   Clear